User: anonymous   Login
Location: Home
(42.5358°N, 72.7383°W)
Time: 23:59:40
(UTC-05:00)
Language:

METEOR M2 - Orbit

View from above orbital plane
View from above orbital plane
View from above satellite
View from above satellite

Ground track
Ground track

The orbit data is extracted from the following two-line orbital elements,

1 40069U 14037A   22024.72113848 -.00000009  00000-0  15266-4 0  9992
2 40069  98.4429  49.0029 0006292  30.1207 330.0319 14.20695813391453
Epoch (UTC): 24 January 2022 17:18:26
Eccentricity: 0.0006292
inclination: 98.4429°
perigee height: 818 km
apogee height: 827 km
right ascension of ascending node: 49.0029°
argument of perigee: 30.1207°
revolutions per day: 14.20695813
mean anomaly at epoch: 330.0319°
orbit number at epoch: 39145

The dashed part of the orbit path shows where the satellite is in the earth's shadow,  

DLR